sat.trackr.live / text

‹ back to catalog

STARLINK-36531

NORAD 67513 · 2026-012W

PAYLOAD ACTIVE UNKNOWN

§ Identity

Operator
Country
US
Launch date
2026-01-18
Launch site
AFETR
Launch vehicle
Mass (kg)
RCS (m²)

Purposes: comms

External: N2YO · Heavens-Above · Gunter

§ Orbital elements

Epoch: 2026-09-19T10:46:27.113952Z

Period
94.27 min
Inclination
42.9997°
Eccentricity
0.0001624
Mean motion
15.27584704 rev/d
Perigee alt
481.9 km
Apogee alt
484.1 km
Semi-major
6,861.2 km
B*
1.9890e-4
RAAN
300.2506°
Arg perigee
285.9839°
Mean anomaly
74.0833°
Rev number
3,739

§ Raw data

STARLINK-365311 67513U 26012W   26262.44892493  .00005216  00000+0  19890-3 0  99972 67513  42.9997 300.2506 0001624 285.9839  74.0833 15.27584704 37397

JSON: /api/v1/satellites/67513 · /tle

For live sub-satellite position, see the globe view (requires WebGL).

§ Visibility from observer

Set your observer location to see the next 7 days of passes ≥ 10°. The values pass through the URL so the page stays shareable.

No JS? Fill the form by hand. The geolocation button needs JavaScript.